#timestamp,LO_Frequency,Hit,StdDev 
1458399615.1,286047006.0,P
1458399616.0,286047006.0,P
1458399635.8,286047005.9,Y
1458399655.6,286046999.9,P
1458399675.5,286047003.6,N
1458399695.3,286047007.3,P
1458399715.1,286047010.3,Y
1458399735.9,286047006.4,P
1458399755.7,286047007.9,P
1458399775.5,286047004.8,N
1458399795.4,286047003.0,N
1458399815.2,286047008.9,Y
1458399835.0,286047005.6,P
1458399835.9,286047005.6,P
1458399855.8,286047006.6,P
1458399875.6,286047005.5,Y
1458399895.4,286047000.5,P
1458399915.3,286047000.4,N
1458399935.1,286046998.2,N
1458399955.8,286046998.3,N
1458399975.7,286047002.3,N
1458399995.5,286047002.2,N
1458400015.3,286047005.6,N
1458400035.2,286047007.2,N
1458400055.9,286047007.6,N
1458400075.7,286047006.2,N
1458400095.6,286047005.6,N
1458400115.4,286047001.7,N
1458400135.2,286047000.5,N
1458400155.1,286047002.5,N
1458400156.0,286047002.5,N
1458400175.8,286047005.5,N
1458400195.6,286047004.4,N
1458400215.4,286047005.9,N
1458400235.3,286047006.3,N
1458400255.1,286047005.6,N
1458400275.8,286047005.7,N
1458400295.7,286047003.5,N
1458400315.5,286047001.7,N
1458400335.3,286047003.5,N
1458400355.2,286047001.8,N
1458400375.9,286047004.2,N
1458400395.7,286047001.6,N
1458400415.6,286047004.4,N
1458400435.4,286047000.7,N
1458400455.2,286047000.1,N
1458400475.1,286046999.8,N
1458400476.0,286046999.8,N
1458400495.8,286047003.2,N
1458400515.6,286047003.8,N
1458400535.4,286047000.0,N
1458400555.3,286047003.0,N
1458400575.1,286047005.9,N
1458400595.8,286047006.9,N
1458400615.7,286047008.5,Y
1458400635.5,286046998.1,P
1458400655.3,286046997.1,N
1458400675.2,286046999.8,N
1458400695.0,286047003.7,N
1458400695.9,286047003.7,N
1458400715.7,286047004.1,N
1458400735.6,286047004.2,N
1458400755.4,286047003.3,N
1458400775.2,286047003.2,N
1458400795.1,286047005.1,N
1458400796.0,286047005.1,N
1458400815.8,286047006.5,N
1458400835.6,286047007.0,N
1458400855.5,286047001.7,N
1458400875.3,286047002.5,N
1458400895.1,286047003.5,N
1458400915.9,286047002.3,N
1458400935.7,286047002.4,N
1458400955.5,286047002.3,N
1458400975.3,286046998.4,N
1458400995.2,286046999.1,N
1458401015.0,286047000.8,N
1458401015.9,286047000.8,N
1458401035.7,286047002.4,N
1458401055.6,286046999.8,N
1458401075.4,286047004.4,N
1458401095.2,286047003.4,N
1458401115.1,286047005.3,N
1458401116.0,286047005.3,N
1458401135.8,286047003.2,N
1458401155.6,286047001.3,N
1458401175.5,286046998.9,N
1458401195.3,286046998.2,N
1458401215.1,286047001.8,N
1458401235.9,286047001.2,N
1458401255.7,286046999.1,N
1458401275.5,286046996.7,N
1458401295.4,286046994.9,N
1458401315.2,286046993.6,N
1458401335.0,286046995.9,N
1458401335.9,286046995.9,N
1458401355.8,286046993.9,N
1458401375.6,286046993.7,N
1458401395.4,286046993.3,N
1458401415.2,286047000.4,N
1458401435.1,286046999.0,N
1458401436.0,286046999.0,N
1458401455.8,286046995.0,N
1458401475.6,286046997.0,N
1458401495.5,286046997.2,N
1458401515.3,286046993.5,N
1458401535.1,286046995.8,N
1458401555.9,286046996.4,N
1458401575.7,286046995.3,N
1458401595.5,286046996.7,N
1458401615.4,286046996.8,N
1458401635.2,286047000.4,N
1458401655.0,286047001.1,N
1458401655.9,286047001.1,N
1458401675.8,286046997.8,N
1458401695.6,286046999.6,N
1458401715.4,286046996.8,N
1458401735.2,286046996.5,N
1458401755.1,286046997.1,N
1458401756.0,286046997.1,N
1458401775.8,286046995.4,N
1458401795.6,286046996.7,N
1458401815.5,286046997.6,N
1458401835.3,286046995.3,N
1458401855.1,286046994.1,N
1458401875.9,286046993.4,Y
1458401895.7,286046998.3,P
1458401915.5,286047002.4,P
1458401935.4,286046998.1,N
1458401955.2,286047000.8,N
1458401975.0,286047000.6,N
1458401975.9,286047000.6,N
1458401995.8,286047000.5,N
1458402015.6,286047001.7,N
1458402035.4,286047004.3,N
1458402055.3,286047005.2,N
1458402075.1,286047005.2,N
1458402076.0,286047005.2,N
1458402095.8,286047005.2,N
1458402115.7,286047003.9,N
1458402135.5,286047003.2,N
1458402155.3,286047004.2,N
1458402175.1,286047002.4,N
1458402195.9,286047003.7,N
1458402215.7,286047006.0,N
1458402235.5,286047003.0,N
1458402255.4,286047007.3,N
1458402275.2,286047004.8,N
1458402295.0,286047001.8,N
1458402295.9,286047001.8,N
1458402315.8,286047002.4,N
1458402335.6,286047003.3,N
1458402355.4,286047005.8,N
1458402375.3,286047003.4,N
1458402395.1,286047000.5,N
1458402396.0,286047000.5,N
1458402415.8,286047000.8,N
1458402435.7,286047000.7,N
1458402455.5,286046999.8,N
1458402475.3,286047001.6,N
1458402495.2,286047001.5,N
1458402515.9,286047003.5,N
1458402535.7,286047001.7,N
1458402555.6,286047001.3,N
1458402575.4,286047003.4,N
1458402595.2,286047003.2,N
1458402615.0,286047002.2,N
1458402615.9,286047002.2,N
1458402635.8,286047003.5,N
1458402655.6,286047002.2,N
1458402675.4,286047004.4,N
1458402695.3,286047005.9,Y
1458402715.1,286046998.1,P
1458402735.8,286046997.7,N
1458402755.7,286046995.3,N
1458402775.5,286046995.3,N
1458402795.3,286046995.0,N
1458402815.2,286046995.2,N
1458402835.9,286046996.1,N
1458402855.7,286046996.2,N
1458402875.6,286046992.5,Y
1458402895.4,286046996.7,P
1458402915.2,286046996.5,P
1458402935.1,286046999.2,P
1458402936.0,286046999.2,N
1458402955.8,286046999.3,N
1458402975.6,286046997.4,N
1458402995.5,286046999.6,N
1458403015.3,286046999.0,N
1458403035.1,286046999.9,N
1458403055.9,286046999.2,N
1458403075.7,286046998.0,N
1458403095.5,286046999.0,N
1458403115.3,286047000.5,N
1458403135.2,286046999.6,N
1458403155.0,286046998.8,N
1458403155.9,286046998.8,N
1458403175.7,286047001.1,N
1458403195.6,286046999.6,N
